This demonstration page uses our WeatherBlox Daily Observations layout. Learn more.

Left ArrowRight Arrow

44.89941, -97.11507

Hourly Observations for June 21, 2021

Temp ( °F °C ) Dew Point ( °F °C ) Humidity (%) Winds ( mph kmh ) Pressure ( in mb ) Visibility ( mi km ) Precip ( " mm )
12:53 am 00:53 Mostly Cloudy 57 13.9 53 11.7 87 87 NNW 9 15 29.89 1012 10 16 0.00 0.00
1:53 am 01:53 Clear 51 10.6 49 9.4 92 92 N 8 13 29.91 1013 10 16 0.00 0.00
2:53 am 02:53 Mostly Cloudy 48 8.9 45 7.2 89 89 N 8 13 29.94 1014 10 16 0.00 0.00
3:53 am 03:53 Partly Cloudy 48 8.9 44 6.7 86 86 N 8 13 29.96 1015 10 16 0.00 0.00
4:53 am 04:53 Mostly Clear 46 7.8 42 5.6 86 86 N 6 9 29.98 1015 10 16 0.00 0.00
5:53 am 05:53 Sunny 46 7.8 42 5.6 86 86 NNW 8 13 29.99 1016 9 14 0.00 0.00
6:53 am 06:53 Sunny 48 8.9 44 6.7 86 86 N 6 9 30.01 1016 10 16 0.00 0.00
7:53 am 07:53 Sunny 52 11.1 44 6.7 75 75 N 13 20 30.04 1017 10 16 0.00 0.00
8:53 am 08:53 Partly Cloudy 55 12.8 41 5 59 59 NNW 12 19 30.05 1018 10 16 0.00 0.00
9:53 am 09:53 Mostly Sunny 58 14.4 41 5 53 53 NNW 12 19 30.05 1018 10 16 0.00 0.00
10:53 am 10:53 Partly Cloudy 61 16.1 36 2.2 39 39 N 13 20 30.05 1018 10 16 0.00 0.00
11:53 am 11:53 Sunny 63 17.2 33 0.6 33 33 NNW 18 30 30.05 1018 10 16 0.00 0.00
12:53 pm 12:53 Mostly Cloudy 62 16.7 35 1.7 37 37 NNW 15 24 30.04 1017 10 16 0.00 0.00
1:53 pm 13:53 Mostly Cloudy 63 17.2 36 2.2 37 37 N 14 22 30.03 1017 10 16 0.00 0.00
2:53 pm 14:53 Mostly Cloudy 63 17.2 38 3.3 40 40 NW 12 19 30.02 1017 10 16 0.00 0.00
3:53 pm 15:53 Partly Cloudy 65 18.3 38 3.3 37 37 WNW 12 19 30.01 1016 10 16 0.00 0.00
4:53 pm 16:53 Partly Cloudy 66 18.9 38 3.3 36 36 W 12 19 29.98 1015 10 16 0.00 0.00
5:53 pm 17:53 Mostly Cloudy 65 18.3 39 3.9 39 39 NNW 7 11 29.96 1015 10 16 0.00 0.00
6:53 pm 18:53 Partly Cloudy 65 18.3 39 3.9 39 39 NNW 3 6 29.94 1014 10 16 0.00 0.00
7:53 pm 19:53 Sunny 64 17.8 42 5.6 45 45 N 12 19 29.94 1014 10 16 0.00 0.00
8:53 pm 20:53 Sunny 58 14.4 43 6.1 58 58 NNE 5 7 29.94 1014 10 16 0.00 0.00
9:53 pm 21:53 Clear 55 12.8 42 5.6 62 62 Calm 29.94 1014 10 16 0.00 0.00
10:53 pm 22:53 Clear 54 12.2 42 5.6 64 64 E 3 6 29.95 1014 10 16 0.00 0.00
11:53 pm 23:53 Clear 55 12.8 42 5.6 62 62 E 5 7 29.94 1014 10 16 0.00 0.00

Powered by AerisWeather